Location: Ajisawe
(8.4333°N, 4.3833°E)
Time: 14:10:13
(UTC+00:00)

Courier 1B Rocket - All Passes

Search period start: 23 April 2021 00:00
Search period end: 03 May 2021 00:00
Orbit: 920 x 1202 km, 28.2° (Epoch: 22 April)

Date Brightness Start Highest point End Pass type
(mag) Time Alt. Az. Time Alt. Az. Time Alt. Az.
23 Apr - 00:27:19 10° NW 00:34:50 69° NNE 00:42:38 10° ESE night (unlit)
23 Apr - 02:21:34 10° W 02:28:42 40° SSW 02:35:54 10° SE visible
23 Apr - 04:20:51 10° SW 04:22:54 11° SSW 04:24:55 10° SSW visible
23 Apr - 12:05:44 10° SSE 12:07:20 11° SSE 12:08:55 10° SE daylight
23 Apr - 13:54:58 10° SW 14:00:57 45° SSE 14:06:53 10° ENE daylight
23 Apr - 15:48:21 10° W 15:54:20 49° NNW 16:00:30 10° NE daylight
23 Apr - 17:44:11 10° WNW 17:48:31 19° NNW 17:53:01 10° NNE daylight
23 Apr - 19:40:40 10° NNW 19:43:41 13° N 19:46:47 10° NNE visible
23 Apr - 21:33:55 10° NNW 21:38:57 20° NNE 21:44:11 10° ENE visible
23 Apr - 23:26:22 10° NW 23:33:26 49° NNE 23:40:53 10° E night (unlit)
24 Apr - 01:19:53 10° WNW 01:27:21 58° SSW 01:35:02 10° SE night (unlit)
24 Apr - 03:16:27 10° WSW 03:21:21 18° SSW 03:26:17 10° S visible
24 Apr - 12:54:31 10° SSW 12:59:57 29° SSE 13:05:14 10° E daylight
24 Apr - 14:47:02 10° WSW 14:53:17 73° NNW 14:59:34 10° ENE daylight
24 Apr - 16:42:09 10° WNW 16:47:06 24° NNW 16:52:12 10° NNE daylight
24 Apr - 18:39:01 10° NNW 18:41:58 13° N 18:45:00 10° NNE visible
24 Apr - 20:33:16 10° NNW 20:37:18 16° NNE 20:41:28 10° NE visible
24 Apr - 22:25:35 10° NW 22:32:01 35° NNE 22:38:49 10° E visible
25 Apr - 00:18:32 10° WNW 00:26:01 83° SSW 00:33:52 10° ESE night (unlit)
25 Apr - 02:13:41 10° W 02:19:55 26° SSW 02:26:14 10° SSE visible
25 Apr - 11:54:25 10° SSW 11:58:50 19° SSE 12:03:08 10° ESE daylight
25 Apr - 13:45:58 10° SW 13:52:17 74° SSE 13:58:30 10° ENE daylight
25 Apr - 15:40:19 10° W 15:45:51 33° NNW 15:51:26 10° NE daylight
25 Apr - 17:36:57 10° NW 17:40:20 15° N 17:43:48 10° NNE daylight
25 Apr - 19:32:32 10° NNW 19:35:36 13° N 19:38:46 10° NE visible
25 Apr - 21:24:56 10° NW 21:30:34 26° NNE 21:36:29 10° ENE visible
25 Apr - 23:17:29 10° NW 23:24:43 70° NNE 23:32:24 10° ESE night (unlit)
26 Apr - 01:11:37 10° W 01:18:32 39° SSW 01:25:41 10° SE night (unlit)
26 Apr - 03:10:56 10° SW 03:12:48 11° SSW 03:14:41 10° SSW visible
26 Apr - 10:55:09 10° S 10:57:35 12° SSE 10:59:59 10° SE daylight
26 Apr - 12:45:06 10° SW 12:51:18 47° SSE 12:57:15 10° ENE daylight
26 Apr - 14:38:41 10° W 14:44:42 47° NNW 14:50:41 10° NE daylight
26 Apr - 16:34:44 10° NW 16:38:49 18° NNW 16:42:59 10° NNE daylight
26 Apr - 18:31:27 10° NNW 18:33:54 12° N 18:36:24 10° NNE visible
26 Apr - 20:24:23 10° NNW 20:29:02 19° NNE 20:33:54 10° ENE visible
26 Apr - 22:16:37 10° NW 22:23:23 49° NNE 22:30:37 10° E visible
27 Apr - 00:10:01 10° WNW 00:17:12 56° SSW 00:24:47 10° SE night (unlit)
27 Apr - 02:06:32 10° WSW 02:11:14 17° SSW 02:16:02 10° S night (unlit)
27 Apr - 11:44:30 10° SSW 11:50:14 31° SSE 11:55:43 10° E daylight
27 Apr - 13:37:16 10° WSW 13:43:39 71° NNW 13:49:51 10° NE daylight
27 Apr - 15:32:36 10° WNW 15:37:27 23° NNW 15:42:18 10° NNE daylight
27 Apr - 17:29:46 10° NNW 17:32:14 12° N 17:34:44 10° NNE daylight
27 Apr - 19:23:51 10° NNW 19:27:28 15° NNE 19:31:11 10° NE visible
27 Apr - 21:15:56 10° NW 21:22:03 34° NNE 21:28:34 10° E visible
27 Apr - 23:08:46 10° WNW 23:15:55 81° SSW 23:23:35 10° ESE night (unlit)
28 Apr - 01:03:50 10° W 01:09:47 25° SSW 01:15:57 10° SSE night (unlit)
28 Apr - 10:44:13 10° SSW 10:49:05 20° SSE 10:53:44 10° ESE daylight
28 Apr - 12:36:04 10° SW 12:42:37 76° SSE 12:48:53 10° ENE daylight
28 Apr - 14:30:38 10° W 14:36:11 32° NNW 14:41:40 10° NE daylight
28 Apr - 16:27:33 10° NW 16:30:38 14° N 16:33:46 10° NNE daylight
28 Apr - 18:23:13 10° NNW 18:25:50 12° N 18:28:29 10° NNE visible
28 Apr - 20:15:22 10° NNW 20:20:41 25° NNE 20:26:16 10° ENE visible
28 Apr - 22:07:47 10° NW 22:14:41 71° NNE 22:22:07 10° ESE visible
29 Apr - 00:01:51 10° W 00:08:25 37° SSW 00:15:23 10° SE night (unlit)
29 Apr - 02:01:34 10° SW 02:02:44 10° SSW 02:03:54 10° SSW night (unlit)
29 Apr - 09:44:33 10° S 09:47:47 13° SSE 09:50:55 10° SE daylight
29 Apr - 11:35:05 10° SW 11:41:36 50° SSE 11:47:42 10° ENE daylight
29 Apr - 13:28:53 10° W 13:35:03 46° NNW 13:41:01 10° NE daylight
29 Apr - 15:25:11 10° NW 15:29:09 17° NNW 15:33:07 10° NNE daylight
29 Apr - 17:22:13 10° NNW 17:24:10 11° N 17:26:09 10° NNE daylight
29 Apr - 19:14:53 10° NNW 19:19:14 18° NNE 19:23:44 10° ENE visible
29 Apr - 21:07:00 10° NW 21:13:26 48° NNE 21:20:22 10° E visible
29 Apr - 23:00:18 10° WNW 23:07:08 54° SSW 23:14:29 10° SE night (unlit)
30 Apr - 00:56:50 10° WSW 01:01:10 16° SSW 01:05:36 10° S night (unlit)
30 Apr - 10:34:20 10° SSW 10:40:29 33° SSE 10:46:14 10° E daylight
30 Apr - 12:27:20 10° WSW 12:33:58 70° NNW 12:40:15 10° NE daylight
30 Apr - 14:22:54 10° WNW 14:27:46 23° NNW 14:32:34 10° NNE daylight
30 Apr - 16:20:23 10° NNW 16:22:33 12° N 16:24:43 10° NNE daylight
30 Apr - 18:14:25 10° NNW 18:17:43 14° NNE 18:21:03 10° NE visible
30 Apr - 20:06:22 10° NW 20:12:12 33° NNE 20:18:22 10° E visible
30 Apr - 21:59:07 10° WNW 22:05:55 79° SSW 22:13:18 10° ESE visible
30 Apr - 23:54:09 10° W 23:59:44 24° SSW 00:05:34 10° SSE night (unlit)
01 May - 09:33:54 10° SSW 09:39:15 22° SSE 09:44:20 10° ESE daylight
01 May - 11:26:01 10° WSW 11:32:54 79° SSE 11:39:20 10° ENE daylight
01 May - 13:20:48 10° W 13:26:31 32° NNW 13:32:02 10° NE daylight
01 May - 15:17:57 10° NW 15:20:58 14° N 15:23:57 10° NNE daylight
01 May - 17:13:51 10° NNW 17:16:07 12° N 17:18:24 10° NNE daylight
01 May - 19:05:50 10° NNW 19:10:53 24° NNE 19:16:09 10° ENE visible
01 May - 20:58:10 10° NW 21:04:46 71° NNE 21:11:53 10° ESE visible
01 May - 22:52:12 10° W 22:58:25 35° SSW 23:05:02 10° SSE night (unlit)
02 May - 08:33:58 10° S 08:37:53 15° SSE 08:41:41 10° ESE daylight
02 May - 10:24:55 10° SW 10:31:48 53° SSE 10:38:12 10° ENE daylight
02 May - 12:18:55 10° W 12:25:20 46° NNW 12:31:25 10° NE daylight
02 May - 14:15:26 10° NW 14:19:28 17° NNW 14:23:26 10° NNE daylight
02 May - 16:12:45 10° NNW 16:14:29 11° N 16:16:13 10° NNE daylight
02 May - 18:05:23 10° NNW 18:09:29 18° NNE 18:13:42 10° ENE visible
02 May - 19:57:25 10° NW 20:03:37 48° NNE 20:10:12 10° E visible
02 May - 21:50:43 10° WNW 21:57:11 51° SSW 22:04:11 10° SE visible
02 May - 23:47:21 10° WSW 23:51:09 15° SSW 23:55:04 10° S night (unlit)
